When you browse on this site, cookies collect data to enhance your experience and personalize the content and advertising you see.
Visit our Privacy Policy to learn more. By continuing to use the site, you agree to this use of cookies and data.
  • Em Portugal
  • Lista de países
  • Para 7 dias
  • Temperatura da água
  • Mapas de satélite
  • Mapa do tempo
  • Widgets de tempo
  • user-avatar
    Iniciar Sessão

    Previsão horária em Trzebien

    Hoje, 18 Dezembro, Terça-feira

    Tempo Temperatura Precipitação Vento Pressão Humidade
    00:00 +1°C° 0 mm 2 m/s 754 mmHg 89%
    01:00 +1°C° 0 mm 2 m/s 754 mmHg 91%
    02:00 +1°C° 0 mm 2 m/s 754 mmHg 91%
    03:00 +1°C° 0 mm 2 m/s 754 mmHg 91%
    04:00 +1°C° 0 mm 2 m/s 754 mmHg 91%
    05:00 +1°C° 0.1 mm 2 m/s 755 mmHg 91%
    06:00 +1°C° 0.1 mm 2 m/s 755 mmHg 92%
    07:00 +1°C° 0 mm 2 m/s 755 mmHg 93%
    08:00 +2°C° 0 mm 2 m/s 755 mmHg 92%
    09:00 +2°C° 0 mm 2 m/s 755 mmHg 92%
    10:00 +2°C° 0 mm 2 m/s 755 mmHg 91%
    11:00 +3°C° 0 mm 2 m/s 755 mmHg 91%
    12:00 +3°C° 0 mm 2 m/s 755 mmHg 90%
    13:00 +3°C° 0 mm 2 m/s 755 mmHg 90%
    14:00 +4°C° 0 mm 1 m/s 755 mmHg 91%
    15:00 +3°C° 0 mm 1 m/s 755 mmHg 91%
    16:00 +2°C° 0 mm 1 m/s 755 mmHg 92%
    17:00 +2°C° 0 mm 1 m/s 755 mmHg 92%
    18:00 +1°C° 0 mm 2 m/s 755 mmHg 92%
    19:00 +1°C° 0 mm 2 m/s 755 mmHg 92%
    20:00 -1°C° 0 mm 2 m/s 754 mmHg 92%
    21:00 -1°C° 0 mm 2 m/s 754 mmHg 91%
    22:00 -1°C° 0 mm 2 m/s 754 mmHg 91%
    23:00 -1°C° 0 mm 2 m/s 754 mmHg 91%

    Amanhã, 19 Dezembro, Quarta-feira

    Tempo Temperatura Precipitação Vento Pressão Humidade
    00:00 -1°C° 0 mm 2 m/s 754 mmHg 90%
    01:00 -1°C° 0 mm 3 m/s 753 mmHg 90%
    02:00 -1°C° 0 mm 3 m/s 753 mmHg 89%
    03:00 -1°C° 0 mm 3 m/s 753 mmHg 89%
    04:00 -2°C° 0 mm 3 m/s 752 mmHg 88%
    05:00 -2°C° 0 mm 3 m/s 752 mmHg 87%
    06:00 -2°C° 0 mm 3 m/s 752 mmHg 87%
    07:00 -3°C° 0 mm 4 m/s 752 mmHg 86%
    08:00 -2°C° 0 mm 4 m/s 752 mmHg 83%
    09:00 -1°C° 0 mm 4 m/s 751 mmHg 80%
    10:00 -1°C° 0 mm 4 m/s 751 mmHg 77%
    11:00 0°C° 0 mm 4 m/s 751 mmHg 74%
    12:00 0°C° 0 mm 4 m/s 751 mmHg 72%
    13:00 +1°C° 0 mm 4 m/s 751 mmHg 70%
    14:00 0°C° 0 mm 4 m/s 750 mmHg 73%
    15:00 0°C° 0 mm 3 m/s 750 mmHg 76%
    16:00 0°C° 0 mm 3 m/s 750 mmHg 78%
    17:00 0°C° 0 mm 3 m/s 749 mmHg 78%
    18:00 0°C° 0 mm 3 m/s 749 mmHg 79%
    19:00 0°C° 0 mm 3 m/s 749 mmHg 79%
    20:00 0°C° 0.1 mm 3 m/s 749 mmHg 79%
    21:00 0°C° 0.1 mm 3 m/s 749 mmHg 79%
    22:00 0°C° 0.1 mm 3 m/s 749 mmHg 78%
    23:00 -1°C° 0 mm 3 m/s 749 mmHg 79%

    Depois de amanhã, 20 Dezembro, Quinta-feira

    Tempo Temperatura Precipitação Vento Pressão Humidade
    00:00 -1°C° 0 mm 3 m/s 749 mmHg 79%
    01:00 -1°C° 0 mm 3 m/s 749 mmHg 80%
    02:00 -1°C° 0 mm 3 m/s 749 mmHg 80%
    03:00 -1°C° 0 mm 2 m/s 748 mmHg 79%
    04:00 -1°C° 0 mm 2 m/s 748 mmHg 79%
    05:00 -1°C° 0.1 mm 2 m/s 748 mmHg 80%
    06:00 -1°C° 0.1 mm 2 m/s 748 mmHg 80%
    07:00 -1°C° 0.1 mm 2 m/s 748 mmHg 81%
    08:00 -1°C° 0.2 mm 2 m/s 748 mmHg 81%
    09:00 -1°C° 0.2 mm 3 m/s 748 mmHg 81%
    10:00 -1°C° 0.2 mm 3 m/s 748 mmHg 81%
    11:00 0°C° 0.4 mm 3 m/s 748 mmHg 82%
    12:00 0°C° 0.4 mm 3 m/s 748 mmHg 84%
    13:00 0°C° 0.4 mm 3 m/s 748 mmHg 85%
    14:00 0°C° 0.3 mm 3 m/s 748 mmHg 86%
    15:00 0°C° 0.3 mm 3 m/s 748 mmHg 87%
    16:00 0°C° 0.3 mm 3 m/s 748 mmHg 88%
    17:00 +1°C° 0 mm 3 m/s 748 mmHg 88%
    18:00 +1°C° 0 mm 3 m/s 748 mmHg 88%
    19:00 0°C° 0 mm 4 m/s 748 mmHg 88%
    20:00 0°C° 0 mm 4 m/s 748 mmHg 88%
    21:00 +1°C° 0 mm 3 m/s 749 mmHg 88%
    22:00 +1°C° 0 mm 3 m/s 749 mmHg 89%
    23:00 +1°C° 0 mm 3 m/s 749 mmHg 89%

    21 Dezembro, Sexta-feira

    Tempo Temperatura Precipitação Vento Pressão Humidade
    00:00 +1°C° 0 mm 3 m/s 749 mmHg 90%
    01:00 +1°C° 0 mm 3 m/s 749 mmHg 90%
    02:00 +1°C° 0 mm 3 m/s 749 mmHg 90%
    03:00 +1°C° 0 mm 3 m/s 749 mmHg 90%
    04:00 +1°C° 0 mm 3 m/s 748 mmHg 89%
    05:00 +1°C° 0.1 mm 4 m/s 748 mmHg 89%
    06:00 +1°C° 0.1 mm 4 m/s 748 mmHg 88%
    07:00 +1°C° 0.1 mm 4 m/s 748 mmHg 87%
    08:00 +1°C° 0 mm 4 m/s 748 mmHg 86%
    09:00 +1°C° 0 mm 4 m/s 748 mmHg 85%
    10:00 +1°C° 0 mm 4 m/s 748 mmHg 84%
    11:00 +3°C° 0 mm 4 m/s 747 mmHg 83%
    12:00 +3°C° 0 mm 4 m/s 746 mmHg 82%
    13:00 +4°C° 0 mm 4 m/s 745 mmHg 81%
    14:00 +3°C° 0.2 mm 5 m/s 744 mmHg 81%
    15:00 +2°C° 0.2 mm 5 m/s 743 mmHg 82%
    16:00 +2°C° 0.2 mm 6 m/s 743 mmHg 82%
    17:00 +3°C° 1.1 mm 6 m/s 742 mmHg 83%
    18:00 +3°C° 1.1 mm 6 m/s 741 mmHg 84%
    19:00 +3°C° 1.1 mm 6 m/s 740 mmHg 85%
    20:00 +4°C° 1.2 mm 7 m/s 740 mmHg 84%
    21:00 +5°C° 1.2 mm 7 m/s 740 mmHg 84%
    22:00 +6°C° 1.2 mm 7 m/s 739 mmHg 84%
    23:00 +6°C° 0.2 mm 7 m/s 740 mmHg 83%

    22 Dezembro, Sábado

    Tempo Temperatura Precipitação Vento Pressão Humidade
    00:00 +5°C° 0.2 mm 6 m/s 740 mmHg 83%
    01:00 +6°C° 0.2 mm 5 m/s 740 mmHg 82%
    02:00 +5°C° 0 mm 6 m/s 741 mmHg 81%
    03:00 +5°C° 0 mm 6 m/s 741 mmHg 81%
    04:00 +4°C° 0 mm 6 m/s 742 mmHg 80%
    05:00 +4°C° 0 mm 6 m/s 742 mmHg 80%
    06:00 +4°C° 0 mm 6 m/s 743 mmHg 80%
    07:00 +4°C° 0 mm 6 m/s 743 mmHg 80%
    08:00 +4°C° 0.1 mm 6 m/s 743 mmHg 80%
    09:00 +4°C° 0.1 mm 6 m/s 743 mmHg 79%
    10:00 +5°C° 0.1 mm 6 m/s 743 mmHg 79%
    11:00 +5°C° 0.2 mm 6 m/s 743 mmHg 78%
    12:00 +7°C° 0.2 mm 6 m/s 742 mmHg 77%
    13:00 +7°C° 0.2 mm 5 m/s 742 mmHg 76%
    14:00 +7°C° 0.7 mm 5 m/s 742 mmHg 79%
    15:00 +7°C° 0.7 mm 5 m/s 741 mmHg 83%
    16:00 +7°C° 0.7 mm 5 m/s 741 mmHg 86%
    17:00 +7°C° 0.3 mm 5 m/s 741 mmHg 84%
    18:00 +7°C° 0.3 mm 5 m/s 741 mmHg 83%
    19:00 +5°C° 0.3 mm 6 m/s 741 mmHg 81%
    20:00 +5°C° 0.1 mm 6 m/s 742 mmHg 80%
    21:00 +5°C° 0.1 mm 7 m/s 742 mmHg 79%
    22:00 +5°C° 0.1 mm 7 m/s 742 mmHg 78%
    23:00 +5°C° 0.3 mm 7 m/s 743 mmHg 79%

    23 Dezembro, Domingo

    Tempo Temperatura Precipitação Vento Pressão Humidade
    00:00 +5°C° 0.3 mm 8 m/s 743 mmHg 80%
    01:00 +5°C° 0.3 mm 8 m/s 744 mmHg 81%
    02:00 +5°C° 0.2 mm 7 m/s 744 mmHg 80%
    03:00 +5°C° 0.2 mm 7 m/s 745 mmHg 80%
    04:00 +5°C° 0.2 mm 7 m/s 746 mmHg 80%
    05:00 +4°C° 0 mm 7 m/s 746 mmHg 80%
    06:00 +4°C° 0 mm 6 m/s 746 mmHg 81%
    07:00 +4°C° 0 mm 6 m/s 747 mmHg 82%
    08:00 +4°C° 0.1 mm 6 m/s 747 mmHg 81%
    09:00 +4°C° 0.1 mm 7 m/s 748 mmHg 80%
    10:00 +4°C° 0.1 mm 7 m/s 748 mmHg 79%
    11:00 +4°C° 0.1 mm 7 m/s 748 mmHg 78%
    12:00 +4°C° 0.1 mm 7 m/s 749 mmHg 76%
    13:00 +5°C° 0.1 mm 7 m/s 749 mmHg 75%
    14:00 +4°C° 0.1 mm 7 m/s 749 mmHg 76%
    15:00 +4°C° 0.1 mm 6 m/s 750 mmHg 77%
    16:00 +4°C° 0.1 mm 6 m/s 750 mmHg 78%
    17:00 +4°C° 0 mm 6 m/s 751 mmHg 79%
    18:00 +3°C° 0 mm 5 m/s 751 mmHg 80%
    19:00 +3°C° 0 mm 5 m/s 751 mmHg 81%
    20:00 +3°C° 0 mm 5 m/s 752 mmHg 83%
    21:00 +4°C° 0 mm 4 m/s 752 mmHg 84%
    22:00 +3°C° 0 mm 4 m/s 753 mmHg 86%
    23:00 +3°C° 0 mm 4 m/s 753 mmHg 88%
    Mostrar mais